When you browse on this site, cookies collect data to enhance your experience and personalize the content and advertising you see.
Visit our Privacy Policy to learn more. By continuing to use the site, you agree to this use of cookies and data.

Meteo pe oră la Nemirov

Astăzi, 7 Iulie, Marţi

Timp Temperatura Precipitaţii Vânt Presiune Umiditate
00:00 +21°C° 0 mm 1 m/s 731 mmHg 81%
01:00 +21°C° 0 mm 1 m/s 731 mmHg 83%
02:00 +19°C° 0 mm 0 m/s 731 mmHg 85%
03:00 +19°C° 0.1 mm 0 m/s 731 mmHg 85%
04:00 +19°C° 0.1 mm 0 m/s 730 mmHg 85%
05:00 +19°C° 0.1 mm 0 m/s 730 mmHg 85%
06:00 +22°C° 0.7 mm 1 m/s 731 mmHg 82%
07:00 +23°C° 0.7 mm 2 m/s 731 mmHg 79%
08:00 +25°C° 0.7 mm 2 m/s 731 mmHg 76%
09:00 +25°C° 1.1 mm 3 m/s 731 mmHg 75%
10:00 +26°C° 1.1 mm 4 m/s 731 mmHg 75%
11:00 +26°C° 1.1 mm 5 m/s 731 mmHg 74%
12:00 +25°C° 1.9 mm 5 m/s 731 mmHg 78%
13:00 +23°C° 1.9 mm 5 m/s 731 mmHg 82%
14:00 +21°C° 1.9 mm 5 m/s 731 mmHg 87%
15:00 +21°C° 0.1 mm 6 m/s 731 mmHg 86%
16:00 +20°C° 0.1 mm 7 m/s 731 mmHg 85%
17:00 +18°C° 0.1 mm 8 m/s 732 mmHg 84%
18:00 +17°C° 0 mm 8 m/s 732 mmHg 81%
19:00 +16°C° 0 mm 7 m/s 733 mmHg 78%
20:00 +15°C° 0 mm 7 m/s 733 mmHg 76%
21:00 +14°C° 0 mm 7 m/s 734 mmHg 73%
22:00 +14°C° 0 mm 7 m/s 734 mmHg 70%
23:00 +14°C° 0 mm 7 m/s 734 mmHg 68%

Mâine, 8 Iulie, Miercuri

Timp Temperatura Precipitaţii Vânt Presiune Umiditate
00:00 +14°C° 0.1 mm 7 m/s 735 mmHg 73%
01:00 +12°C° 0.1 mm 7 m/s 735 mmHg 79%
02:00 +12°C° 0.1 mm 7 m/s 735 mmHg 84%
03:00 +13°C° 0 mm 6 m/s 735 mmHg 86%
04:00 +11°C° 0 mm 6 m/s 736 mmHg 89%
05:00 +12°C° 0 mm 5 m/s 736 mmHg 91%
06:00 +13°C° 0 mm 5 m/s 736 mmHg 86%
07:00 +14°C° 0 mm 6 m/s 737 mmHg 80%
08:00 +15°C° 0 mm 6 m/s 737 mmHg 75%
09:00 +16°C° 0 mm 6 m/s 737 mmHg 71%
10:00 +17°C° 0 mm 6 m/s 738 mmHg 66%
11:00 +19°C° 0 mm 6 m/s 738 mmHg 62%
12:00 +19°C° 0 mm 6 m/s 738 mmHg 61%
13:00 +20°C° 0 mm 5 m/s 738 mmHg 61%
14:00 +20°C° 0 mm 5 m/s 738 mmHg 60%
15:00 +20°C° 0 mm 5 m/s 738 mmHg 61%
16:00 +20°C° 0 mm 5 m/s 738 mmHg 62%
17:00 +20°C° 0 mm 5 m/s 738 mmHg 63%
18:00 +18°C° 0 mm 4 m/s 739 mmHg 68%
19:00 +17°C° 0 mm 3 m/s 739 mmHg 73%
20:00 +16°C° 0 mm 2 m/s 739 mmHg 79%
21:00 +15°C° 0 mm 2 m/s 739 mmHg 80%
22:00 +14°C° 0 mm 2 m/s 739 mmHg 82%
23:00 +13°C° 0 mm 2 m/s 739 mmHg 84%

Poimâine, 9 Iulie, Joi

Timp Temperatura Precipitaţii Vânt Presiune Umiditate
00:00 +13°C° 0 mm 2 m/s 739 mmHg 85%
01:00 +13°C° 0 mm 2 m/s 740 mmHg 86%
02:00 +13°C° 0 mm 2 m/s 740 mmHg 87%
03:00 +13°C° 0 mm 2 m/s 740 mmHg 87%
04:00 +13°C° 0 mm 2 m/s 740 mmHg 87%
05:00 +13°C° 0 mm 2 m/s 740 mmHg 87%
06:00 +15°C° 0 mm 2 m/s 740 mmHg 82%
07:00 +17°C° 0 mm 2 m/s 740 mmHg 76%
08:00 +19°C° 0 mm 3 m/s 740 mmHg 71%
09:00 +20°C° 0 mm 3 m/s 741 mmHg 67%
10:00 +21°C° 0 mm 4 m/s 741 mmHg 64%
11:00 +22°C° 0 mm 4 m/s 741 mmHg 60%
12:00 +22°C° 0.2 mm 4 m/s 741 mmHg 66%
13:00 +21°C° 0.2 mm 4 m/s 741 mmHg 72%
14:00 +20°C° 0.2 mm 4 m/s 741 mmHg 77%
15:00 +20°C° 0 mm 4 m/s 741 mmHg 76%
16:00 +20°C° 0 mm 4 m/s 741 mmHg 74%
17:00 +21°C° 0 mm 4 m/s 741 mmHg 72%
18:00 +20°C° 0 mm 3 m/s 741 mmHg 77%
19:00 +18°C° 0 mm 2 m/s 741 mmHg 82%
20:00 +18°C° 0 mm 1 m/s 741 mmHg 87%
21:00 +16°C° 0 mm 1 m/s 741 mmHg 88%
22:00 +15°C° 0 mm 1 m/s 741 mmHg 89%
23:00 +14°C° 0 mm 1 m/s 741 mmHg 91%

10 Iulie, Vineri

Timp Temperatura Precipitaţii Vânt Presiune Umiditate
00:00 +14°C° 0 mm 1 m/s 741 mmHg 90%
01:00 +14°C° 0 mm 1 m/s 742 mmHg 89%
02:00 +14°C° 0 mm 1 m/s 742 mmHg 89%
03:00 +14°C° 0 mm 1 m/s 742 mmHg 89%
04:00 +14°C° 0 mm 1 m/s 742 mmHg 90%
05:00 +14°C° 0 mm 1 m/s 742 mmHg 90%
06:00 +16°C° 0 mm 1 m/s 742 mmHg 85%
07:00 +18°C° 0 mm 2 m/s 742 mmHg 79%
08:00 +20°C° 0 mm 2 m/s 742 mmHg 74%
09:00 +21°C° 0 mm 2 m/s 742 mmHg 70%
10:00 +24°C° 0 mm 2 m/s 742 mmHg 66%
11:00 +25°C° 0 mm 3 m/s 742 mmHg 62%
12:00 +26°C° 0.1 mm 3 m/s 742 mmHg 61%
13:00 +26°C° 0.1 mm 3 m/s 742 mmHg 60%
14:00 +27°C° 0.1 mm 3 m/s 741 mmHg 59%
15:00 +27°C° 0.1 mm 3 m/s 741 mmHg 60%
16:00 +27°C° 0.1 mm 3 m/s 741 mmHg 61%
17:00 +27°C° 0.1 mm 3 m/s 741 mmHg 61%
18:00 +25°C° 0 mm 3 m/s 740 mmHg 67%
19:00 +24°C° 0 mm 3 m/s 740 mmHg 73%
20:00 +21°C° 0 mm 3 m/s 740 mmHg 79%
21:00 +21°C° 0 mm 3 m/s 740 mmHg 78%
22:00 +20°C° 0 mm 4 m/s 740 mmHg 78%
23:00 +19°C° 0 mm 4 m/s 740 mmHg 78%

11 Iulie, Sâmbătă

Timp Temperatura Precipitaţii Vânt Presiune Umiditate
00:00 +19°C° 0 mm 4 m/s 740 mmHg 78%
01:00 +18°C° 0 mm 4 m/s 740 mmHg 78%
02:00 +18°C° 0 mm 3 m/s 740 mmHg 78%
03:00 +18°C° 0 mm 3 m/s 740 mmHg 79%
04:00 +17°C° 0 mm 3 m/s 740 mmHg 79%
05:00 +17°C° 0 mm 3 m/s 740 mmHg 79%
06:00 +19°C° 0 mm 4 m/s 740 mmHg 75%
07:00 +21°C° 0 mm 4 m/s 740 mmHg 71%
08:00 +23°C° 0 mm 5 m/s 740 mmHg 67%
09:00 +25°C° 0 mm 5 m/s 740 mmHg 64%
10:00 +26°C° 0 mm 5 m/s 740 mmHg 62%
11:00 +27°C° 0 mm 5 m/s 740 mmHg 59%
12:00 +28°C° 0 mm 5 m/s 740 mmHg 58%
13:00 +28°C° 0 mm 4 m/s 740 mmHg 57%
14:00 +29°C° 0 mm 4 m/s 739 mmHg 56%
15:00 +28°C° 0.2 mm 4 m/s 739 mmHg 58%
16:00 +28°C° 0.2 mm 4 m/s 738 mmHg 61%
17:00 +27°C° 0.2 mm 4 m/s 738 mmHg 64%
18:00 +26°C° 0.2 mm 3 m/s 738 mmHg 69%
19:00 +24°C° 0.2 mm 3 m/s 738 mmHg 74%
20:00 +23°C° 0.2 mm 2 m/s 738 mmHg 80%
21:00 +21°C° 0.1 mm 3 m/s 738 mmHg 81%
22:00 +20°C° 0.1 mm 3 m/s 738 mmHg 82%
23:00 +19°C° 0.1 mm 3 m/s 738 mmHg 82%

12 Iulie, Duminică

Timp Temperatura Precipitaţii Vânt Presiune Umiditate
00:00 +19°C° 0 mm 3 m/s 738 mmHg 82%
01:00 +19°C° 0 mm 2 m/s 737 mmHg 81%
02:00 +19°C° 0 mm 2 m/s 737 mmHg 80%
03:00 +19°C° 0 mm 2 m/s 737 mmHg 80%
04:00 +19°C° 0 mm 2 m/s 737 mmHg 80%
05:00 +19°C° 0 mm 2 m/s 737 mmHg 80%
06:00 +18°C° 0.4 mm 3 m/s 737 mmHg 84%
07:00 +17°C° 0.4 mm 4 m/s 737 mmHg 88%
08:00 +15°C° 0.4 mm 6 m/s 737 mmHg 91%
09:00 +14°C° 1.5 mm 6 m/s 738 mmHg 92%
10:00 +14°C° 1.5 mm 6 m/s 738 mmHg 92%
11:00 +12°C° 1.5 mm 7 m/s 738 mmHg 93%
12:00 +12°C° 1 mm 7 m/s 739 mmHg 92%
13:00 +12°C° 1 mm 7 m/s 739 mmHg 91%
14:00 +13°C° 1 mm 6 m/s 739 mmHg 89%
15:00 +14°C° 0 mm 6 m/s 739 mmHg 85%
16:00 +15°C° 0 mm 6 m/s 739 mmHg 80%
17:00 +15°C° 0 mm 6 m/s 740 mmHg 76%
18:00 +14°C° 0 mm 5 m/s 740 mmHg 79%
19:00 +13°C° 0 mm 4 m/s 740 mmHg 82%
20:00 +12°C° 0 mm 3 m/s 740 mmHg 85%
21:00 +12°C° 0 mm 3 m/s 740 mmHg 87%
22:00 +11°C° 0 mm 3 m/s 740 mmHg 90%
23:00 +11°C° 0 mm 3 m/s 740 mmHg 93%
Arată mai mult